Regional Weather Roundup
Issued by NWS

Home | Current Version | Previous Version | Graphics & Text | Print | Product List | Glossary On
Versions: 1 2 3 4 5 6 7 8 9 10 11 12 13 14 15 16 17 18 19 20 21 22 23 24 25 26 27 28 29 30 31 32 33 34 35 36 37 38 39 40 41 42 43 44 45 46 47 48 49 50
000
ASUS45 KCYS 261910
RWRWY

WYOMING REGIONAL WEATHER ROUNDUP
NATIONAL WEATHER SERVICE CHEYENNE WY
100 PM MDT THU MAY 26 2016

NOTE:  "FAIR" INDICATES FEW OR NO CLOUDS BELOW 12,000 FEET
WITH NO SIGNIFICANT WEATHER AND/OR OBSTRUCTIONS TO VISIBILITY.

WYZ001-262000-
YELLOWSTONE NATIONAL PARK

CITY           SKY/WX    TMP DP  RH WIND       PRES   REMARKS
LK YELLOWSTONE   N/A     49  32  52 VRB5      30.08F
W YELLOWSTONE  NOT AVBL

$$
WYZ002>013-054>058-071-098>099-262000-
NORTHERN WYOMING

CITY           SKY/WX    TMP DP  RH WIND       PRES   REMARKS
JACKSON        PTSUNNY   55  32  41 CALM      30.05S
CODY           FAIR      57  37  47 NW3       29.95F
GREYBULL       FAIR      63  43  48 VRB5      29.94F
WORLAND        FAIR      64  39  39 VRB5      29.95F
SHERIDAN       FAIR      63  45  51 W8        29.93F
BUFFALO          N/A     58  40  51 N9        29.96F
GILLETTE       PTSUNNY   60  43  53 NW7       29.94S
HULETT         MOCLDY    61  36  39 W10G20    29.94S
NEWCASTLE      FAIR      64  28  25 N9G20     29.94F

$$
WYZ014>020-022>026-101>103-262000-
CENTRAL WYOMING

CITY           SKY/WX    TMP DP  RH WIND       PRES   REMARKS
BIG PINEY      FAIR      56  27  32 N13G21    30.04F
PINEDALE       FAIR      55  27  33 NE3       30.03F
DUBOIS         FAIR      59  21  23 NW13      30.01S
LANDER         FAIR      63  36  36 VRB5      29.97F
RIVERTON       FAIR      62  34  35 E8        29.98F
CASPER         FAIR      61  37  41 MISG      29.96F
DOUGLAS          N/A    N/A N/A N/A MISG      29.95F

$$
WYZ021-027>030-104>119-262000-
SOUTHERN WYOMING

CITY           SKY/WX    TMP DP  RH WIND       PRES   REMARKS
EVANSTON       FAIR      55  31  39 N7        30.04F
KEMMERER         N/A     55  30  38 W5        30.05F
FORT BRIDGER   PTCLDY    55  37  50 N6        30.08F
ROCK SPRINGS   FAIR      55  31  39 CALM      30.02F
DIXON          FAIR      62  31  32 NW13      29.99F
RAWLINS        FAIR      62  32  32 N12       29.99F
SARATOGA       FAIR      57  30  35 N10G16    30.00F
LARAMIE        FAIR      57  32  38 NE10      29.98F
CHEYENNE       CLOUDY    59  37  44 SE17G31   29.95F
TORRINGTON     PTSUNNY   67  39  35 NW9       29.90F
PINE BLUFFS    CLOUDY    57  41  54 SE6       29.96F

$$



USA.gov is the U.S. government's official web portal to all federal, state and local government web resources and services.